This is the latest recevied weather packets stored in our database for station/object NEWPRT. If no packets are shown the sender has not sent any weather packets the latest 10 day(s).
| Time | Temp. | Humidity | Pressure | Rain* | Wind** | Luminosity | Snow |
|---|---|---|---|---|---|---|---|
| 1777431195 | - | 54% | 1024.6 hPa | 0 mm | - | - | - |
| 1777430874 | - | 54% | 1024.7 hPa | 0 mm | - | - | - |
| 1777430548 | - | 54% | 1024.7 hPa | 0 mm | - | - | - |
| 1777430225 | - | 54% | 1024.6 hPa | 0 mm | - | - | - |
| 1777429902 | - | 53% | 1024.7 hPa | 0 mm | - | - | - |
| 1777429579 | - | 53% | 1024.7 hPa | 0 mm | - | - | - |
| 1777429256 | - | 53% | 1024.7 hPa | 0 mm | - | - | - |
| 1777428933 | - | 50% | 1024.8 hPa | 0 mm | - | - | - |
| 1777428610 | - | 50% | 1024.7 hPa | 0 mm | - | - | - |
| 1777428287 | - | 49% | 1024.6 hPa | 0 mm | - | - | - |
| 1777427964 | - | 50% | 1024.6 hPa | 0 mm | - | - | - |
| 1777427641 | - | 50% | 1024.9 hPa | 0 mm | - | - | - |
| 1777427318 | - | 49% | 1024.9 hPa | 0 mm | - | - | - |
| 1777426995 | - | 48% | 1025 hPa | 0 mm | - | - | - |
| 1777426672 | - | 47% | 1025 hPa | 0 mm | - | - | - |
| 1777426349 | - | 48% | 1025 hPa | 0 mm | - | - | - |
| 1777426026 | - | 49% | 1025 hPa | 0 mm | - | - | - |
| 1777425704 | - | 48% | 1024.9 hPa | 0 mm | - | - | - |
| 1777425380 | - | 48% | 1025 hPa | 0 mm | - | - | - |
| 1777425057 | - | 47% | 1025.1 hPa | 0 mm | - | - | - |
| 1777424734 | - | 46% | 1025.1 hPa | 0 mm | - | - | - |
| 1777424411 | - | 47% | 1025.1 hPa | 0 mm | - | - | - |
| 1777424088 | - | 49% | 1025.2 hPa | 0 mm | - | - | - |
| 1777423765 | - | 49% | 1025.2 hPa | 0 mm | - | - | - |
| 1777423442 | - | 45% | 1025.2 hPa | 0 mm | - | - | - |
* Rain latest hour (hover to see other rain measurements)
** Current wind speed in m/s (hover to see current wind gust speed)